{"data":{"norad_id":65297,"epoch":"2026-05-25T05:05:12.015168Z","epoch_age_seconds":53913,"freshness":"FRESH","line1":"1 65297U 25185A   26145.21194462  .00008104  00000+0  11044-2 0  9991","line2":"2 65297  97.9604 228.7556 0016641 152.8006 207.4080 14.78856379 40431","mean_motion":14.78856379,"eccentricity":0.0016641,"inclination_deg":97.9604,"raan_deg":228.7556,"arg_perigee_deg":152.8006,"mean_anomaly_deg":207.408,"bstar":0.0011044,"rev_number":4043,"period_min":97.372538702759,"perigee_km":621.26918947075,"apogee_km":644.60344368298,"semimajor_km":7011.0733165769,"source":"CELESTRAK","updated_at":"2026-05-25T13:38:05.296914Z"}}